Le nostre stazioni meteo in Italia

Pubblicità
Il mio iltempo24.it
Chillingham Barns, Gran Bretagna (99196): Temperatura & dewpoint: 19.04.2018 19:00:00 - 25.04.2018 19:00:00 (BST)Chillingham Barns, Gran Bretagna (99196): precipitazioni: 19.04.2018 19:00:00 - 25.04.2018 19:00:00 (BST)
Data & Tempo tt [°C] td [°C] rr [mm]
25.04.2018 19:00:00 - - 0,2
25.04.2018 18:00:00 - - 0,4
25.04.2018 17:00:00 - - 0,0
25.04.2018 16:00:00 - - 0,0
25.04.2018 15:00:00 - - 0,0
25.04.2018 14:00:00 - - 0,0
25.04.2018 13:00:00 - - 0,0
25.04.2018 12:00:00 11,0 3,1 0,0
25.04.2018 11:00:00 11,4 3,4 0,0
25.04.2018 10:00:00 10,5 3,5 0,0
25.04.2018 09:00:00 10,4 3,6 0,0
25.04.2018 08:00:00 8,9 4,0 0,0
25.04.2018 07:00:00 7,1 4,0 0,0
25.04.2018 06:00:00 6,6 3,7 0,0
25.04.2018 05:00:00 7,4 4,1 0,0
25.04.2018 04:00:00 7,6 4,5 0,0
25.04.2018 03:00:00 7,4 4,6 0,0
25.04.2018 02:00:00 7,4 4,6 0,0
25.04.2018 01:00:00 7,7 4,6 0,0
25.04.2018 00:00:00 8,0 4,4 0,0
24.04.2018 23:00:00 8,4 4,5 0,0
24.04.2018 22:00:00 8,6 4,6 0,0
24.04.2018 21:00:00 8,9 4,6 0,0
24.04.2018 20:00:00 9,4 4,7 0,0
24.04.2018 19:00:00 9,7 5,1 0,0
24.04.2018 18:00:00 10,5 5,1 0,0
24.04.2018 17:00:00 11,3 4,5 0,0
24.04.2018 16:00:00 11,1 4,7 0,0
24.04.2018 15:00:00 11,0 4,8 0,0
24.04.2018 14:00:00 12,3 4,6 0,0
24.04.2018 13:00:00 12,2 4,0 0,0
24.04.2018 12:00:00 11,6 3,8 0,0
24.04.2018 11:00:00 11,6 4,6 0,0
24.04.2018 10:00:00 11,2 5,7 0,0
24.04.2018 09:00:00 9,4 4,2 0,0
24.04.2018 08:00:00 9,1 3,9 0,0
24.04.2018 07:00:00 7,5 3,5 0,0
24.04.2018 06:00:00 7,7 3,6 0,0
24.04.2018 05:00:00 7,9 3,7 0,0
24.04.2018 04:00:00 8,9 4,2 0,0
24.04.2018 03:00:00 8,9 4,7 0,0
24.04.2018 02:00:00 8,8 4,2 0,0
24.04.2018 01:00:00 8,1 3,5 0,0
24.04.2018 00:00:00 8,8 3,5 0,0
23.04.2018 23:00:00 10,1 6,3 0,0
23.04.2018 22:00:00 10,7 7,1 0,0
23.04.2018 21:00:00 9,5 8,3 0,2
23.04.2018 20:00:00 9,7 7,6 0,0
23.04.2018 19:00:00 10,1 7,0 0,0
23.04.2018 18:00:00 9,7 6,2 0,2
23.04.2018 17:00:00 10,5 5,0 0,0
23.04.2018 16:00:00 11,4 4,0 0,0
23.04.2018 15:00:00 13,2 6,1 0,0
23.04.2018 14:00:00 13,1 4,7 0,0
23.04.2018 13:00:00 12,4 5,0 0,0
23.04.2018 12:00:00 13,5 5,9 0,0
23.04.2018 11:00:00 12,0 5,8 0,0
23.04.2018 10:00:00 10,8 5,2 0,0
23.04.2018 09:00:00 10,5 5,6 0,0
23.04.2018 08:00:00 9,2 5,8 0,0
23.04.2018 07:00:00 9,1 5,7 0,0
23.04.2018 06:00:00 8,2 5,2 0,0
23.04.2018 05:00:00 8,7 5,0 0,0
23.04.2018 04:00:00 8,6 5,1 0,0
23.04.2018 03:00:00 8,6 5,2 0,0
23.04.2018 02:00:00 8,0 4,6 0,0
23.04.2018 01:00:00 9,1 5,0 0,0
23.04.2018 00:00:00 9,6 5,7 0,0
22.04.2018 23:00:00 9,7 6,1 0,0
22.04.2018 22:00:00 9,2 5,3 0,0
22.04.2018 21:00:00 10,1 5,6 0,0
22.04.2018 20:00:00 10,1 5,2 0,0
22.04.2018 19:00:00 11,5 5,6 0,0
22.04.2018 18:00:00 12,4 5,7 0,0
22.04.2018 17:00:00 12,4 5,7 0,0
22.04.2018 16:00:00 12,0 6,7 0,0
22.04.2018 15:00:00 11,8 6,1 0,0
22.04.2018 14:00:00 13,2 7,8 0,0
22.04.2018 13:00:00 10,8 5,3 0,0
22.04.2018 12:00:00 10,2 4,8 0,0
22.04.2018 11:00:00 12,3 2,0 0,0
22.04.2018 10:00:00 14,0 8,4 0,0
22.04.2018 09:00:00 15,4 12,1 0,0
22.04.2018 08:00:00 13,9 11,7 0,0
22.04.2018 07:00:00 13,1 11,3 0,0
22.04.2018 06:00:00 11,9 10,7 0,0
22.04.2018 05:00:00 11,7 10,3 0,0
22.04.2018 04:00:00 12,6 11,0 0,2
22.04.2018 03:00:00 11,8 10,8 0,6
22.04.2018 02:00:00 12,0 9,8 0,0
22.04.2018 01:00:00 12,4 10,1 0,0
22.04.2018 00:00:00 13,0 10,1 0,0
21.04.2018 23:00:00 11,4 8,7 0,0
21.04.2018 22:00:00 11,9 8,9 0,0
21.04.2018 21:00:00 11,2 8,6 0,0
21.04.2018 20:00:00 12,8 9,3 0,0
21.04.2018 19:00:00 13,9 9,1 0,0
21.04.2018 18:00:00 15,1 8,7 0,0
21.04.2018 17:00:00 15,9 9,1 0,0
21.04.2018 16:00:00 17,0 9,8 0,0
21.04.2018 15:00:00 16,5 8,7 0,0
21.04.2018 14:00:00 16,5 6,5 0,0
21.04.2018 13:00:00 16,2 6,6 0,0
21.04.2018 12:00:00 14,8 6,5 0,0
21.04.2018 11:00:00 14,7 7,6 0,0
21.04.2018 10:00:00 12,8 7,0 0,0
21.04.2018 09:00:00 11,6 7,5 0,0
21.04.2018 08:00:00 8,9 7,8 0,0
21.04.2018 07:00:00 5,9 5,1 0,0
21.04.2018 06:00:00 5,6 5,0 0,0
21.04.2018 05:00:00 5,7 4,8 0,0
21.04.2018 04:00:00 5,0 3,6 0,0
21.04.2018 03:00:00 6,6 5,2 0,0
21.04.2018 02:00:00 7,2 5,2 0,0
21.04.2018 01:00:00 7,0 5,0 0,0
21.04.2018 00:00:00 7,3 5,2 0,0
20.04.2018 23:00:00 8,4 5,6 0,0
20.04.2018 22:00:00 8,5 4,1 0,0
20.04.2018 21:00:00 10,0 3,6 0,0
20.04.2018 20:00:00 13,4 3,5 0,0
20.04.2018 19:00:00 14,6 4,3 0,0
20.04.2018 18:00:00 17,0 7,8 0,0
20.04.2018 17:00:00 17,3 7,4 0,0
20.04.2018 16:00:00 17,8 7,7 0,0
20.04.2018 15:00:00 18,1 6,7 0,0
20.04.2018 14:00:00 18,2 4,7 0,0
20.04.2018 13:00:00 17,3 6,2 0,0
20.04.2018 12:00:00 17,3 8,0 0,0
20.04.2018 11:00:00 16,6 8,3 0,0
20.04.2018 10:00:00 14,9 10,0 0,0
20.04.2018 09:00:00 12,0 9,7 0,0
20.04.2018 08:00:00 8,1 7,8 0,0
20.04.2018 07:00:00 6,3 6,0 0,0
20.04.2018 06:00:00 6,4 5,9 0,0
20.04.2018 05:00:00 7,4 7,0 0,0
20.04.2018 04:00:00 7,6 7,3 0,0
20.04.2018 03:00:00 7,5 7,1 0,0
20.04.2018 02:00:00 8,8 7,7 0,0
20.04.2018 01:00:00 9,8 8,3 0,0
20.04.2018 00:00:00 10,6 8,8 0,0
19.04.2018 23:00:00 11,7 9,2 0,0
19.04.2018 22:00:00 12,2 9,7 0,0
19.04.2018 21:00:00 13,5 10,2 0,0
19.04.2018 20:00:00 14,9 10,7 0,0
19.04.2018 19:00:00 17,7 11,8 0,0

tt = Temperatura
td = dewpoint
rr = precipitazioni

Stazioni seguenti

WeatherPro
AMSI
MeteoEarth